• In Hungary
  • List of Countries
  • For 7 days
  • Water Temperature
  • Satellite Maps
  • Weather Map
  • News
  • Weather Widgets
  • user-avatar
    Login

    Hourly Weather Skowronkow

    Today, 16 July, Monday

    Time Temperature Precipitation Wind Pressure Humidity
    00:00 +15°C° 0 mm 1 mps 727 mmHg 82%
    01:00 +15°C° 0 mm 2 mps 727 mmHg 82%
    02:00 +14°C° 0 mm 2 mps 727 mmHg 82%
    03:00 +14°C° 0 mm 2 mps 727 mmHg 82%
    04:00 +14°C° 0 mm 2 mps 727 mmHg 82%
    05:00 +16°C° 0 mm 2 mps 727 mmHg 78%
    06:00 +17°C° 0 mm 2 mps 727 mmHg 75%
    07:00 +19°C° 0 mm 2 mps 727 mmHg 71%
    08:00 +20°C° 0 mm 2 mps 727 mmHg 67%
    09:00 +23°C° 0 mm 2 mps 727 mmHg 63%
    10:00 +24°C° 0 mm 3 mps 727 mmHg 59%
    11:00 +25°C° 0 mm 3 mps 726 mmHg 57%
    12:00 +25°C° 0 mm 3 mps 726 mmHg 54%
    13:00 +26°C° 0 mm 3 mps 726 mmHg 52%
    14:00 +26°C° 0 mm 3 mps 725 mmHg 53%
    15:00 +26°C° 0 mm 3 mps 725 mmHg 53%
    16:00 +26°C° 0 mm 3 mps 725 mmHg 54%
    17:00 +24°C° 0.1 mm 3 mps 725 mmHg 61%
    18:00 +23°C° 0.1 mm 2 mps 724 mmHg 68%
    19:00 +21°C° 0.1 mm 2 mps 724 mmHg 75%
    20:00 +20°C° 0 mm 1 mps 724 mmHg 79%
    21:00 +19°C° 0 mm 1 mps 724 mmHg 82%
    22:00 +18°C° 0 mm 1 mps 724 mmHg 85%
    23:00 +16°C° 0 mm 1 mps 724 mmHg 86%

    Tomorrow, 17 July, Tuesday

    Time Temperature Precipitation Wind Pressure Humidity
    00:00 +16°C° 0 mm 2 mps 723 mmHg 87%
    01:00 +16°C° 0 mm 2 mps 723 mmHg 88%
    02:00 +16°C° 0 mm 2 mps 723 mmHg 88%
    03:00 +16°C° 0 mm 2 mps 723 mmHg 89%
    04:00 +15°C° 0 mm 2 mps 723 mmHg 89%
    05:00 +16°C° 0.3 mm 3 mps 723 mmHg 87%
    06:00 +17°C° 0.3 mm 3 mps 723 mmHg 86%
    07:00 +18°C° 0.3 mm 4 mps 722 mmHg 84%
    08:00 +17°C° 0.5 mm 5 mps 723 mmHg 83%
    09:00 +19°C° 0.5 mm 5 mps 723 mmHg 82%
    10:00 +19°C° 0.5 mm 6 mps 723 mmHg 81%
    11:00 +19°C° 0.4 mm 6 mps 723 mmHg 80%
    12:00 +19°C° 0.4 mm 6 mps 722 mmHg 80%
    13:00 +18°C° 0.4 mm 7 mps 722 mmHg 80%
    14:00 +18°C° 0.2 mm 7 mps 722 mmHg 80%
    15:00 +19°C° 0.2 mm 6 mps 722 mmHg 79%
    16:00 +17°C° 0.2 mm 6 mps 722 mmHg 79%
    17:00 +17°C° 0 mm 6 mps 723 mmHg 80%
    18:00 +17°C° 0 mm 5 mps 723 mmHg 82%
    19:00 +16°C° 0 mm 5 mps 723 mmHg 83%
    20:00 +16°C° 0.1 mm 5 mps 723 mmHg 85%
    21:00 +17°C° 0.1 mm 4 mps 723 mmHg 87%
    22:00 +15°C° 0.1 mm 4 mps 723 mmHg 89%
    23:00 +17°C° 0.2 mm 4 mps 723 mmHg 89%

    Day after tomorrow, 18 July, Wednesday

    Time Temperature Precipitation Wind Pressure Humidity
    00:00 +17°C° 0.2 mm 4 mps 722 mmHg 90%
    01:00 +16°C° 0.2 mm 5 mps 722 mmHg 90%
    02:00 +15°C° 0.9 mm 5 mps 722 mmHg 91%
    03:00 +15°C° 0.9 mm 5 mps 722 mmHg 92%
    04:00 +15°C° 0.9 mm 5 mps 722 mmHg 93%
    05:00 +15°C° 1.8 mm 5 mps 722 mmHg 93%
    06:00 +15°C° 1.8 mm 5 mps 722 mmHg 94%
    07:00 +16°C° 1.8 mm 5 mps 723 mmHg 94%
    08:00 +16°C° 1.5 mm 6 mps 723 mmHg 94%
    09:00 +16°C° 1.5 mm 6 mps 723 mmHg 94%
    10:00 +16°C° 1.5 mm 6 mps 723 mmHg 93%
    11:00 +16°C° 0.6 mm 6 mps 723 mmHg 93%
    12:00 +17°C° 0.6 mm 6 mps 724 mmHg 92%
    13:00 +17°C° 0.6 mm 7 mps 724 mmHg 91%
    14:00 +17°C° 0.2 mm 6 mps 724 mmHg 90%
    15:00 +19°C° 0.2 mm 6 mps 724 mmHg 90%
    16:00 +19°C° 0.2 mm 6 mps 725 mmHg 89%
    17:00 +19°C° 0.1 mm 5 mps 725 mmHg 90%
    18:00 +17°C° 0.1 mm 5 mps 725 mmHg 91%
    19:00 +18°C° 0.1 mm 4 mps 725 mmHg 92%
    20:00 +18°C° 0.2 mm 4 mps 725 mmHg 93%
    21:00 +18°C° 0.2 mm 4 mps 726 mmHg 93%
    22:00 +17°C° 0.2 mm 4 mps 726 mmHg 94%
    23:00 +17°C° 0.1 mm 4 mps 726 mmHg 94%

    19 July, Thursday

    Time Temperature Precipitation Wind Pressure Humidity
    00:00 +17°C° 0.1 mm 4 mps 726 mmHg 94%
    01:00 +17°C° 0.1 mm 4 mps 726 mmHg 94%
    02:00 +15°C° 0 mm 4 mps 726 mmHg 94%
    03:00 +15°C° 0 mm 4 mps 726 mmHg 94%
    04:00 +16°C° 0 mm 3 mps 726 mmHg 95%
    05:00 +15°C° 0.1 mm 4 mps 726 mmHg 94%
    06:00 +17°C° 0.1 mm 4 mps 727 mmHg 93%
    07:00 +17°C° 0.1 mm 4 mps 727 mmHg 92%
    08:00 +18°C° 0.1 mm 4 mps 727 mmHg 89%
    09:00 +18°C° 0.1 mm 4 mps 727 mmHg 86%
    10:00 +19°C° 0.1 mm 4 mps 728 mmHg 83%
    11:00 +20°C° 0.1 mm 4 mps 728 mmHg 80%
    12:00 +21°C° 0.1 mm 4 mps 728 mmHg 76%
    13:00 +21°C° 0.1 mm 4 mps 728 mmHg 72%
    14:00 +22°C° 0 mm 4 mps 727 mmHg 70%
    15:00 +23°C° 0 mm 4 mps 727 mmHg 67%
    16:00 +23°C° 0 mm 4 mps 727 mmHg 65%
    17:00 +24°C° 0 mm 3 mps 727 mmHg 70%
    18:00 +23°C° 0 mm 2 mps 727 mmHg 75%
    19:00 +21°C° 0 mm 2 mps 727 mmHg 79%
    20:00 +20°C° 0 mm 2 mps 727 mmHg 82%
    21:00 +18°C° 0 mm 2 mps 727 mmHg 85%
    22:00 +17°C° 0 mm 2 mps 727 mmHg 88%
    23:00 +17°C° 0 mm 2 mps 727 mmHg 90%

    20 July, Friday

    Time Temperature Precipitation Wind Pressure Humidity
    00:00 +16°C° 0 mm 2 mps 727 mmHg 91%
    01:00 +16°C° 0 mm 2 mps 727 mmHg 92%
    02:00 +16°C° 0 mm 2 mps 727 mmHg 93%
    03:00 +15°C° 0 mm 2 mps 727 mmHg 94%
    04:00 +15°C° 0 mm 2 mps 727 mmHg 94%
    05:00 +16°C° 0 mm 2 mps 727 mmHg 91%
    06:00 +18°C° 0 mm 2 mps 727 mmHg 87%
    07:00 +19°C° 0 mm 2 mps 727 mmHg 83%
    08:00 +20°C° 0 mm 2 mps 727 mmHg 78%
    09:00 +21°C° 0 mm 2 mps 727 mmHg 73%
    10:00 +22°C° 0 mm 3 mps 727 mmHg 67%
    11:00 +24°C° 0 mm 2 mps 727 mmHg 65%
    12:00 +25°C° 0 mm 2 mps 727 mmHg 62%
    13:00 +26°C° 0 mm 2 mps 727 mmHg 60%
    14:00 +26°C° 0 mm 2 mps 727 mmHg 59%
    15:00 +26°C° 0 mm 2 mps 726 mmHg 59%
    16:00 +26°C° 0 mm 2 mps 726 mmHg 58%
    17:00 +25°C° 0 mm 1 mps 726 mmHg 63%
    18:00 +24°C° 0 mm 1 mps 726 mmHg 69%
    19:00 +23°C° 0 mm 1 mps 726 mmHg 74%
    20:00 +21°C° 0 mm 1 mps 726 mmHg 78%
    21:00 +20°C° 0 mm 1 mps 726 mmHg 81%
    22:00 +19°C° 0 mm 1 mps 726 mmHg 85%
    23:00 +19°C° 0 mm 1 mps 726 mmHg 86%

    21 July, Saturday

    Time Temperature Precipitation Wind Pressure Humidity
    00:00 +18°C° 0 mm 1 mps 726 mmHg 87%
    01:00 +18°C° 0 mm 1 mps 726 mmHg 88%
    02:00 +16°C° 0 mm 0 mps 726 mmHg 89%
    03:00 +15°C° 0 mm 0 mps 726 mmHg 89%
    04:00 +15°C° 0 mm 0 mps 725 mmHg 90%
    05:00 +17°C° 0 mm 0 mps 726 mmHg 86%
    06:00 +20°C° 0 mm 1 mps 726 mmHg 82%
    07:00 +22°C° 0 mm 1 mps 726 mmHg 78%
    08:00 +23°C° 0.1 mm 1 mps 726 mmHg 74%
    09:00 +24°C° 0.1 mm 1 mps 726 mmHg 70%
    10:00 +26°C° 0.1 mm 1 mps 726 mmHg 66%
    11:00 +26°C° 0.1 mm 1 mps 726 mmHg 63%
    12:00 +27°C° 0.1 mm 1 mps 726 mmHg 60%
    13:00 +28°C° 0.1 mm 1 mps 726 mmHg 57%
    14:00 +27°C° 0.5 mm 1 mps 726 mmHg 58%
    15:00 +27°C° 0.5 mm 1 mps 726 mmHg 60%
    16:00 +27°C° 0.5 mm 2 mps 725 mmHg 62%
    17:00 +26°C° 0.9 mm 1 mps 725 mmHg 68%
    18:00 +24°C° 0.9 mm 1 mps 725 mmHg 74%
    19:00 +23°C° 0.9 mm 1 mps 725 mmHg 79%
    20:00 +22°C° 0.5 mm 1 mps 725 mmHg 82%
    21:00 +20°C° 0.5 mm 2 mps 725 mmHg 85%
    22:00 +19°C° 0.5 mm 2 mps 725 mmHg 89%
    23:00 +19°C° 0.6 mm 2 mps 725 mmHg 90%
    Show more